GFSMW_850_dewp_294.txt.gz
Dewpoint
-5 -5 -2 2 4 5 6 6 6 7 7 7 7 7 7 7 6 6 6 7 7 7 7 7 7 6 5 3 2 0 -1 -2 -4 -5 -4 -7 -9 -10 -10 -10 -10 -10 -10
-0 -2 -4 -5 -4 4 5 7 6 7 8 8 8 8 8 8 7 7 7 8 8 9 9 9 8 8 7 5 4 3 1 0 -1 -2 -3 -3 -4 -7 -9 -8 -8 -8 -9
1 -0 -1 -3 -5 -2 5 7 7 7 8 9 9 9 9 9 8 8 8 9 9 9 9 9 9 9 8 7 6 5 4 3 2 0 -1 -2 -3 -4 -5 -7 -7 -7 -7
2 2 1 -1 -3 -5 0 7 8 8 9 9 9 9 10 10 8 8 9 9 9 9 8 8 9 9 8 8 7 6 6 5 5 4 2 -0 -2 -2 -3 -3 -5 -7 -7
3 4 3 2 -0 -2 -4 1 8 9 9 10 10 10 10 10 10 9 8 8 7 7 7 7 7 7 7 8 8 8 7 7 7 6 5 3 2 -0 0 -1 -2 -0 -4
3 6 6 6 5 4 2 2 6 8 9 10 11 11 11 11 11 10 10 8 7 6 7 7 7 5 6 6 6 7 7 8 8 7 6 6 4 3 2 2 1 0 0
2 4 7 8 8 9 8 8 8 9 9 10 10 11 11 11 11 10 9 8 6 6 7 6 2 2 2 2 2 2 3 6 7 7 7 7 6 5 4 3 2 1 1
1 3 5 7 8 8 8 8 9 10 9 10 10 10 10 10 10 8 7 6 6 5 -0 -1 -1 -1 -1 -1 -1 -0 1 3 6 6 6 6 7 6 5 5 4 2 2
-1 1 2 3 5 6 7 8 8 9 8 9 9 8 8 7 7 6 5 2 -2 -2 -4 -7 -8 -8 -6 -5 -2 -1 0 1 2 4 5 6 5 5 5 5 5 4 3
-2 -2 -1 0 1 2 3 4 4 5 5 5 4 4 2 0 -2 -4 -7 -12 -20 -26 -28 -29 -30 -30 -31 -31 -31 -30 -26 -12 -3 1 3 4 5 6 6 6 6 6 5
-3 -4 -5 -5 -4 -4 -3 -3 -3 -3 -4 -5 -7 -9 -12 -16 -22 -25 -27 -28 -30 -31 -32 -32 -33 -33 -34 -34 -33 -32 -32 -30 -27 -25 -11 -1 3 4 4 5 5 5 5
-4 -5 -7 -9 -10 -11 -12 -13 -15 -16 -19 -22 -24 -25 -26 -27 -29 -30 -31 -31 -32 -32 -33 -33 -33 -33 -33 -33 -31 -30 -29 -25 -22 -19 -13 -10 -0 3 4 3 4 4 4
-5 -6 -10 -12 -15 -17 -19 -21 -22 -23 -24 -25 -27 -28 -29 -30 -30 -30 -31 -31 -32 -32 -32 -31 -31 -32 -31 -29 -28 -26 -25 -24 -23 -22 -18 -14 -10 -13 -5 2 3 3 3
-6 -7 -9 -13 -17 -18 -20 -22 -23 -24 -25 -26 -27 -28 -28 -29 -29 -29 -29 -29 -29 -29 -29 -30 -30 -31 -30 -28 -26 -25 -25 -24 -23 -23 -23 -20 -16 -7 -3 -7 -7 0 2
-6 -7 -8 -14 -17 -19 -20 -21 -22 -23 -24 -26 -26 -27 -27 -27 -26 -26 -26 -26 -27 -27 -27 -28 -28 -29 -30 -27 -25 -24 -24 -23 -22 -21 -20 -19 -18 -17 -14 -8 -2 -3 -2
-7 -8 -11 -16 -17 -19 -20 -21 -22 -23 -24 -25 -25 -25 -25 -25 -25 -25 -25 -26 -26 -27 -27 -27 -28 -29 -29 -27 -23 -20 -17 -14 -11 -10 -11 -13 -13 -14 -13 -13 -9 -0 1
-7 -9 -14 -16 -18 -19 -20 -21 -22 -22 -23 -23 -24 -24 -24 -24 -25 -25 -25 -25 -26 -26 -26 -26 -27 -27 -27 -26 -24 -20 -15 -11 -9 -6 -4 -5 -5 -4 -6 -7 -7 -4 -1
-8 -12 -15 -16 -18 -19 -20 -20 -21 -22 -22 -22 -22 -23 -22 -23 -23 -23 -23 -23 -23 -23 -24 -24 -25 -25 -25 -24 -22 -15 -11 -8 -5 -4 -4 -3 -3 -2 -2 -2 -2 -1 -1
-11 -14 -15 -16 -17 -18 -19 -20 -20 -20 -20 -20 -20 -21 -21 -21 -21 -21 -21 -21 -21 -21 -22 -22 -23 -23 -23 -22 -22 -19 -16 -12 -10 -7 -3 -3 -3 -2 -2 -2 -1 -1 -0
-13 -15 -15 -16 -16 -17 -18 -18 -18 -18 -18 -19 -19 -19 -18 -18 -19 -19 -19 -19 -20 -20 -21 -21 -21 -21 -21 -21 -21 -21 -15 -12 -7 -4 -3 -3 -2 -1 -1 -1 -1 -0 -1
-13 -14 -14 -15 -16 -16 -16 -16 -17 -17 -17 -17 -17 -17 -17 -17 -18 -18 -18 -19 -19 -20 -20 -20 -20 -20 -19 -19 -19 -17 -9 -6 -5 -3 -3 -3 -2 -2 -2 -2 -1 -2 -2
-12 -13 -14 -14 -14 -15 -15 -15 -16 -15 -16 -15 -16 -16 -16 -16 -17 -17 -18 -18 -19 -19 -19 -19 -19 -19 -17 -17 -17 -11 -5 -4 -4 -3 -3 -2 -3 -2 -2 -2 -2 -2 -2
-12 -12 -12 -9 -13 -14 -14 -14 -14 -14 -14 -15 -15 -15 -16 -16 -17 -18 -18 -18 -18 -18 -18 -18 -18 -18 -18 -18 -17 -11 -7 -5 -4 -3 -3 -2 -2 -2 -2 -3 -3 -3 -3
-5 -5 -9 -13 -13 -13 -13 -13 -14 -14 -14 -15 -15 -16 -16 -17 -17 -18 -18 -18 -19 -19 -20 -20 -21 -21 -21 -18 -11 -6 -5 -5 -4 -3 -3 -3 -2 -3 -3 -3 -3 -3 -4
-9 -12 -12 -12 -12 -13 -13 -13 -13 -14 -15 -15 -16 -17 -17 -18 -18 -19 -20 -22 -23 -24 -24 -24 -23 -23 -22 -20 -9 -7 -6 -5 -4 -3 -3 -3 -3 -3 -3 -3 -3 -3 -5
-11 -11 -12 -12 -12 -13 -13 -14 -14 -15 -16 -17 -17 -18 -20 -22 -23 -24 -25 -25 -25 -25 -25 -25 -25 -25 -22 -18 -9 -7 -6 -5 -5 -4 -3 -3 -3 -3 -3 -4 -3 -4 -5

GFSMW_850_dewp_297.txt.gz
Dewpoint
0 2 5 8 10 10 10 11 11 11 11 10 10 10 10 10 10 10 10 10 10 8 8 8 8 7 6 7 4 2 1 -0 -0 -2 -1 -4 -4 -6 -9 -9 -10 -9 -9
1 2 0 2 6 9 10 11 11 11 11 11 11 11 11 10 10 9 9 8 8 8 9 9 9 8 8 7 6 5 4 3 3 1 -0 -0 -2 -2 -4 -7 -8 -7 -7
1 2 0 -1 -1 4 10 11 11 11 11 11 11 11 11 10 9 8 8 8 9 9 9 9 9 9 9 9 8 7 6 6 5 5 3 1 -1 -1 -3 -3 -3 -4 -6
2 3 3 2 -0 -0 9 11 11 11 11 11 11 9 9 10 10 9 8 9 9 8 7 7 8 8 8 7 8 8 7 7 7 6 5 4 3 2 1 -1 -1 -1 -1
3 4 3 2 -0 -2 4 10 11 11 11 11 10 11 11 11 9 8 9 8 7 7 6 7 7 7 7 5 5 6 7 7 7 7 7 7 6 5 3 3 2 0 -0
3 4 4 4 3 0 1 9 11 11 11 11 11 11 10 10 10 9 9 9 8 8 6 6 7 6 3 2 2 2 2 2 3 5 7 6 6 6 5 4 4 3 4
4 5 6 6 7 7 6 9 10 11 11 11 11 11 11 11 10 10 10 10 9 7 6 6 4 -1 -2 -2 -1 -1 -1 -0 0 2 4 6 6 6 5 6 5 4 5
3 4 6 6 7 7 8 8 9 10 10 10 10 10 10 11 10 10 10 9 6 6 5 -1 -3 -5 -8 -10 -11 -11 -9 -8 -6 -2 2 5 6 6 6 6 6 5 5
2 2 3 6 7 7 7 8 8 9 9 9 9 10 10 10 10 9 7 5 3 -2 -7 -17 -25 -27 -28 -29 -30 -31 -31 -28 -23 -15 -7 4 5 5 5 5 4 4 4
1 1 1 3 5 6 7 7 8 8 8 8 9 8 8 7 6 4 -0 -7 -15 -23 -26 -28 -30 -32 -32 -32 -33 -33 -32 -31 -27 -16 -10 -4 -5 -2 2 3 3 4 4
-1 -1 -1 -0 2 3 4 5 6 6 6 6 5 4 2 -2 -8 -16 -23 -26 -28 -30 -31 -32 -32 -32 -32 -32 -32 -33 -32 -32 -30 -29 -26 -26 -24 -21 -18 -17 -3 1 3
-2 -2 -3 -2 -2 -2 -1 -1 -2 -2 -4 -6 -9 -14 -21 -25 -27 -28 -29 -30 -31 -32 -32 -31 -31 -31 -32 -32 -32 -32 -30 -28 -28 -27 -26 -26 -24 -21 -18 -14 -10 -4 -5
-3 -4 -4 -5 -5 -6 -8 -11 -14 -16 -20 -23 -25 -26 -27 -28 -29 -30 -30 -30 -30 -30 -30 -30 -30 -30 -31 -31 -31 -29 -28 -27 -26 -26 -24 -23 -22 -21 -17 -8 -2 -1 -2
-4 -5 -6 -7 -7 -9 -12 -17 -21 -23 -24 -25 -27 -27 -28 -28 -29 -29 -29 -29 -29 -29 -29 -29 -30 -29 -29 -29 -29 -27 -26 -24 -23 -21 -17 -13 -11 -9 -8 -9 -9 -8 -5
-5 -6 -8 -8 -9 -12 -16 -20 -22 -23 -24 -25 -26 -27 -27 -27 -27 -27 -27 -28 -28 -28 -28 -28 -27 -28 -28 -28 -27 -27 -26 -24 -22 -19 -16 -15 -15 -14 -11 -7 -6 -3 -2
-6 -7 -8 -9 -11 -15 -19 -21 -22 -23 -24 -25 -26 -26 -26 -26 -26 -27 -27 -27 -27 -26 -26 -26 -26 -27 -27 -27 -26 -25 -25 -25 -21 -19 -21 -23 -19 -10 -6 -4 -3 -2 -2
-6 -8 -9 -10 -11 -17 -20 -21 -22 -23 -23 -24 -24 -25 -25 -25 -25 -25 -25 -25 -24 -24 -24 -24 -25 -25 -25 -25 -24 -24 -24 -25 -23 -18 -14 -10 -8 -7 -4 -3 -2 -2 -2
-7 -8 -10 -10 -13 -18 -20 -21 -21 -21 -22 -23 -23 -23 -23 -23 -23 -22 -22 -22 -22 -22 -22 -23 -22 -22 -22 -22 -22 -22 -22 -23 -22 -16 -10 -9 -13 -4 -3 -2 -2 -2 -1
-8 -9 -10 -13 -17 -19 -19 -20 -21 -21 -21 -21 -21 -21 -21 -21 -21 -21 -21 -21 -21 -21 -21 -21 -21 -21 -21 -21 -21 -21 -21 -21 -20 -17 -10 -9 -12 -4 -3 -2 -2 -2 -2
-9 -9 -12 -16 -18 -18 -19 -19 -19 -19 -20 -20 -20 -19 -19 -19 -20 -20 -19 -19 -19 -19 -19 -20 -19 -20 -19 -20 -20 -19 -19 -18 -18 -16 -11 -8 -5 -3 -3 -2 -3 -2 -1
-9 -12 -15 -16 -17 -18 -18 -18 -18 -18 -18 -18 -18 -18 -18 -18 -18 -18 -18 -18 -18 -18 -19 -19 -19 -19 -19 -19 -19 -19 -19 -17 -15 -11 -15 -11 -6 -3 -3 -2 -2 -2 -2
-10 -12 -15 -16 -16 -16 -17 -17 -17 -16 -16 -17 -17 -17 -17 -17 -17 -17 -17 -18 -18 -19 -20 -20 -21 -21 -21 -21 -22 -22 -20 -8 -6 -7 -9 -8 -5 -3 -3 -2 -2 -2 -3
-12 -14 -15 -15 -15 -15 -14 -10 -11 -15 -16 -16 -15 -16 -16 -16 -17 -18 -19 -20 -21 -21 -22 -23 -24 -25 -25 -27 -27 -22 -18 -17 -10 -8 -6 -6 -5 -3 -3 -3 -3 -3 -3
-13 -14 -13 -8 -5 -4 -6 -13 -15 -15 -15 -15 -15 -16 -16 -17 -18 -20 -21 -23 -25 -26 -26 -26 -25 -26 -26 -26 -23 -22 -21 -18 -12 -8 -6 -6 -6 -3 -3 -3 -3 -3 -4
-10 -7 -4 -4 -6 -12 -13 -14 -14 -14 -14 -15 -16 -17 -18 -19 -22 -26 -26 -26 -26 -24 -24 -23 -22 -23 -24 -22 -18 -13 -10 -8 -7 -6 -6 -6 -6 -4 -3 -3 -3 -3 -4
-3 -4 -7 -12 -13 -13 -13 -13 -14 -15 -16 -16 -17 -19 -23 -26 -26 -25 -24 -24 -23 -23 -22 -22 -22 -22 -22 -23 -22 -14 -9 -9 -7 -6 -5 -5 -6 -5 -4 -4 -4 -4 -4

GFSMW_850_dewp_300.txt.gz
Dewpoint
7 8 9 10 10 10 10 11 11 9 7 8 8 9 8 8 10 10 10 10 9 8 7 8 7 6 6 6 6 5 4 3 3 2 0 -2 -3 -3 -3 -5 -8 -8 -8
4 7 8 9 10 10 10 10 11 10 9 8 9 9 9 9 8 9 8 9 8 8 7 8 8 8 8 8 7 6 5 4 4 4 3 1 -1 -2 -2 -2 -3 -3 -4
-0 0 1 5 9 10 10 10 11 11 11 10 10 10 9 10 10 9 8 8 7 8 8 9 8 8 8 6 7 7 7 7 6 6 6 4 2 3 1 0 0 -2 -1
1 2 2 1 2 7 10 10 11 11 11 10 10 10 10 9 9 8 8 8 8 7 7 7 7 7 7 7 6 6 6 6 6 5 7 6 6 5 5 4 3 4 4
1 2 3 2 -0 1 9 10 11 11 10 10 10 10 10 10 10 9 8 8 7 7 7 6 6 6 6 2 2 2 2 2 3 3 3 3 5 6 5 5 3 4 4
3 4 3 2 1 -0 5 10 10 11 10 10 10 11 11 10 9 8 8 8 8 7 6 6 6 6 2 -1 -1 -1 -1 -1 -0 -0 2 4 5 5 6 5 5 5 3
4 3 3 3 3 1 2 10 10 10 10 10 10 10 10 9 9 8 8 9 9 8 6 6 5 -1 -3 -4 -7 -11 -13 -13 -12 -10 -2 3 6 5 5 5 4 4 4
5 5 5 6 6 5 6 9 9 10 10 10 10 10 10 10 10 10 10 10 9 7 6 2 -3 -11 -21 -25 -26 -28 -28 -26 -24 -20 -16 -14 -7 1 3 3 3 2 3
4 4 5 6 6 7 7 7 9 9 10 10 10 10 10 10 10 10 10 9 7 4 -2 -13 -23 -26 -28 -29 -30 -31 -31 -31 -30 -28 -21 -11 -6 -3 -6 -10 -5 -1 2
3 4 5 5 6 6 7 7 7 8 9 9 9 9 9 9 9 9 7 5 -1 -10 -23 -26 -28 -29 -29 -30 -30 -31 -32 -31 -31 -30 -29 -28 -26 -25 -22 -16 -11 -3 -3
2 2 4 5 5 6 6 7 7 7 8 8 8 8 8 7 6 4 -0 -13 -22 -26 -28 -29 -29 -29 -29 -30 -31 -31 -32 -32 -33 -32 -31 -30 -28 -28 -25 -21 -18 -11 -3
0 0 2 3 4 5 5 6 6 6 6 6 5 5 3 0 -8 -17 -24 -27 -28 -29 -29 -29 -29 -29 -30 -30 -31 -31 -32 -32 -32 -31 -29 -27 -24 -21 -16 -13 -11 -10 -10
-1 -1 -1 0 1 1 1 2 2 2 0 -2 -4 -8 -14 -22 -26 -28 -28 -29 -29 -29 -28 -28 -28 -29 -30 -30 -31 -31 -31 -30 -28 -26 -24 -23 -20 -19 -17 -14 -13 -12 -9
-2 -2 -3 -3 -2 -2 -2 -4 -6 -8 -11 -16 -21 -24 -26 -28 -28 -29 -29 -28 -28 -28 -28 -28 -29 -29 -30 -30 -30 -29 -28 -28 -27 -26 -23 -21 -17 -15 -13 -11 -7 -3 -2
-3 -4 -5 -5 -5 -6 -8 -11 -15 -19 -22 -25 -26 -27 -27 -28 -28 -27 -27 -27 -27 -27 -27 -28 -28 -28 -28 -28 -27 -26 -26 -25 -26 -26 -24 -23 -20 -15 -8 -3 -3 -3 -3
-4 -5 -6 -7 -7 -9 -12 -17 -20 -23 -24 -25 -26 -26 -26 -26 -26 -26 -26 -26 -26 -26 -26 -27 -27 -26 -25 -24 -23 -23 -23 -23 -23 -23 -24 -24 -22 -17 -13 -10 -3 -3 -3
-5 -7 -8 -8 -9 -12 -17 -20 -21 -23 -23 -24 -25 -25 -25 -25 -25 -25 -24 -24 -25 -25 -25 -25 -24 -23 -22 -22 -21 -22 -21 -22 -22 -22 -22 -21 -18 -14 -13 -8 -3 -3 -2
-5 -7 -8 -9 -11 -14 -17 -20 -21 -22 -23 -23 -24 -24 -24 -24 -23 -23 -23 -23 -23 -23 -23 -22 -22 -22 -22 -21 -21 -21 -21 -20 -20 -20 -20 -19 -16 -14 -8 -5 -4 -3 -3
-6 -8 -9 -10 -12 -15 -18 -20 -20 -21 -22 -23 -23 -22 -22 -22 -22 -22 -22 -22 -21 -21 -21 -20 -21 -21 -21 -21 -21 -20 -21 -22 -22 -22 -21 -20 -20 -17 -6 -6 -4 -3 -3
-7 -9 -10 -11 -14 -16 -18 -20 -20 -21 -21 -21 -21 -20 -20 -20 -20 -20 -20 -20 -19 -19 -20 -21 -22 -23 -24 -24 -24 -23 -23 -25 -25 -24 -23 -24 -23 -19 -10 -5 -5 -4 -4
-8 -9 -10 -12 -15 -17 -18 -20 -20 -20 -20 -19 -19 -19 -19 -18 -18 -18 -18 -19 -19 -21 -22 -24 -26 -27 -26 -27 -28 -29 -29 -27 -23 -26 -27 -25 -22 -19 -13 -7 -6 -4 -3
-9 -9 -11 -13 -15 -17 -18 -19 -18 -18 -18 -17 -17 -17 -17 -17 -18 -18 -18 -20 -21 -23 -26 -29 -30 -30 -29 -28 -28 -27 -25 -20 -24 -27 -27 -26 -24 -18 -14 -9 -5 -3 -3
-9 -10 -13 -14 -15 -16 -17 -17 -15 -11 -11 -12 -15 -17 -17 -17 -17 -18 -20 -21 -25 -29 -30 -29 -27 -27 -27 -26 -25 -25 -24 -24 -23 -24 -25 -25 -23 -18 -13 -10 -4 -4 -3
-10 -11 -14 -15 -15 -15 -9 -5 -5 -7 -8 -13 -16 -16 -16 -17 -18 -20 -23 -27 -29 -27 -26 -25 -25 -25 -24 -23 -22 -20 -18 -17 -16 -16 -15 -14 -13 -11 -8 -6 -4 -5 -4
-12 -14 -15 -12 -6 -4 -4 -4 -6 -13 -15 -15 -16 -16 -17 -19 -22 -26 -27 -26 -26 -24 -24 -24 -23 -21 -19 -18 -12 -11 -11 -10 -10 -8 -7 -7 -6 -6 -6 -6 -5 -5 -4
-12 -7 -4 -3 -3 -3 -5 -12 -14 -14 -15 -16 -17 -18 -21 -24 -27 -27 -26 -25 -24 -24 -23 -23 -21 -19 -19 -17 -11 -11 -13 -10 -8 -7 -7 -7 -6 -6 -6 -5 -5 -5 -5

GFSMW_850_dewp_303.txt.gz
Dewpoint
9 10 11 11 11 10 10 8 5 7 9 9 8 8 7 8 9 9 9 9 9 8 7 7 7 6 5 5 5 5 4 3 3 2 -1 -1 -2 -3 -3 -2 -1 -4 -1
7 10 11 10 11 11 10 10 9 7 6 7 8 8 7 8 10 10 10 10 9 9 8 7 7 7 7 7 7 6 6 6 5 5 4 3 -0 -2 0 0 -0 1 -2
7 8 9 10 10 10 10 10 10 9 7 7 8 9 9 8 10 10 9 9 9 8 7 7 6 6 5 6 6 5 5 5 6 6 6 5 4 3 1 1 2 1 2
6 7 8 9 10 10 10 10 10 10 10 8 9 9 9 9 9 8 8 7 7 7 7 6 6 6 6 5 1 2 3 2 1 2 4 5 5 5 4 3 2 1 3
-2 -2 2 7 9 10 10 10 10 10 10 10 9 9 9 9 9 9 7 8 7 7 7 6 6 6 6 2 0 0 1 0 0 0 0 1 3 4 5 4 2 1 2
1 1 1 -1 -0 6 10 10 10 10 10 10 10 9 10 10 10 8 8 8 7 7 7 6 6 6 4 -2 -3 -4 -5 -7 -9 -11 -12 -1 4 4 4 3 3 2 -7
1 2 2 2 1 0 5 10 11 9 10 10 10 9 10 9 8 8 7 8 8 7 7 6 6 5 -3 -7 -15 -21 -22 -22 -21 -19 -15 -10 -6 -3 -1 0 -1 0 -8
2 2 2 2 1 1 1 10 10 9 10 10 9 9 9 9 10 9 8 9 8 8 8 6 4 -4 -17 -22 -25 -27 -28 -28 -28 -28 -26 -21 -16 -12 -4 -1 0 -2 -4
2 3 3 3 3 3 2 9 10 9 9 10 10 10 11 11 10 9 9 9 9 9 6 2 -9 -21 -25 -27 -28 -28 -29 -30 -30 -31 -30 -30 -29 -26 -24 -21 -15 -4 0
4 4 5 5 5 5 5 7 8 9 9 10 10 10 10 10 10 10 10 9 9 5 -2 -16 -24 -27 -28 -28 -28 -28 -30 -31 -31 -32 -31 -30 -30 -29 -26 -22 -18 -16 -11
4 4 4 5 5 6 6 7 8 8 9 10 10 10 10 10 10 9 7 7 1 -12 -25 -28 -28 -28 -28 -27 -28 -29 -31 -31 -31 -31 -32 -30 -28 -26 -22 -21 -21 -21 -19
3 4 4 5 5 6 6 6 6 7 8 9 9 9 9 9 8 7 3 -3 -25 -26 -29 -29 -28 -27 -27 -28 -30 -30 -30 -31 -31 -31 -31 -29 -28 -26 -23 -21 -21 -22 -22
2 3 4 4 5 5 6 6 6 6 7 7 8 8 7 6 2 -4 -20 -27 -29 -29 -28 -27 -27 -27 -28 -29 -29 -29 -29 -29 -30 -29 -29 -27 -26 -25 -23 -21 -22 -16 -6
1 2 3 3 4 4 5 5 5 5 6 6 5 4 -0 -8 -19 -27 -28 -29 -28 -27 -27 -27 -27 -28 -28 -28 -28 -28 -27 -27 -27 -26 -25 -25 -25 -23 -22 -17 -15 -14 -4
0 0 1 2 2 2 2 3 3 3 1 -1 -3 -11 -20 -26 -27 -28 -28 -27 -27 -26 -26 -27 -27 -27 -26 -26 -26 -26 -25 -25 -25 -24 -24 -24 -23 -22 -20 -15 -14 -10 -4
-1 -1 -1 -1 -1 -1 -1 -2 -4 -8 -12 -17 -21 -24 -26 -27 -27 -26 -26 -26 -26 -25 -25 -25 -25 -25 -24 -24 -24 -25 -24 -23 -22 -23 -23 -23 -23 -22 -20 -18 -12 -4 -4
-2 -2 -3 -3 -3 -3 -4 -7 -11 -16 -19 -23 -24 -25 -25 -26 -25 -25 -25 -24 -24 -24 -24 -24 -24 -24 -23 -23 -22 -21 -21 -22 -22 -23 -25 -26 -27 -27 -25 -23 -16 -7 -6
-2 -3 -4 -5 -5 -6 -9 -13 -16 -19 -22 -23 -24 -24 -25 -25 -24 -24 -23 -23 -23 -23 -23 -22 -22 -22 -22 -22 -22 -23 -24 -25 -26 -28 -29 -29 -30 -30 -27 -14 -10 -14 -12
-3 -4 -5 -5 -6 -8 -12 -16 -17 -20 -21 -23 -24 -24 -23 -23 -22 -22 -22 -22 -21 -21 -21 -21 -22 -23 -24 -26 -28 -28 -29 -31 -32 -32 -30 -29 -29 -29 -16 -8 -14 -16 -14
-4 -6 -6 -7 -8 -11 -14 -17 -18 -20 -21 -22 -22 -22 -21 -21 -21 -20 -20 -20 -20 -20 -21 -22 -24 -28 -31 -32 -31 -31 -31 -30 -28 -26 -26 -28 -28 -28 -22 -10 -7 -9 -11
-6 -6 -7 -8 -10 -12 -15 -17 -19 -20 -21 -21 -20 -20 -20 -19 -19 -19 -19 -19 -20 -21 -22 -25 -30 -32 -31 -29 -28 -28 -27 -26 -24 -25 -26 -26 -26 -27 -23 -14 -10 -8 -5
-7 -8 -8 -9 -11 -13 -16 -17 -18 -19 -19 -19 -19 -18 -18 -18 -18 -18 -19 -20 -21 -23 -26 -31 -31 -29 -28 -26 -26 -26 -25 -25 -24 -24 -25 -25 -24 -24 -21 -15 -10 -6 -5
-8 -8 -9 -10 -12 -14 -16 -18 -18 -18 -18 -16 -15 -15 -15 -16 -17 -18 -19 -21 -23 -28 -30 -28 -27 -27 -26 -25 -25 -25 -25 -24 -24 -24 -24 -23 -18 -14 -12 -8 -6 -6 -5
-9 -9 -10 -12 -12 -14 -16 -18 -16 -12 -11 -10 -9 -12 -16 -17 -18 -19 -21 -25 -28 -28 -27 -26 -25 -24 -24 -24 -24 -23 -22 -22 -23 -22 -13 -11 -9 -8 -7 -7 -6 -6 -6
-9 -10 -12 -13 -15 -16 -12 -8 -7 -8 -9 -12 -11 -14 -17 -18 -20 -23 -26 -27 -26 -25 -24 -23 -22 -22 -21 -18 -16 -12 -12 -13 -13 -10 -10 -11 -9 -8 -7 -7 -7 -7 -7
-10 -12 -14 -15 -11 -7 -6 -7 -7 -9 -7 -12 -16 -17 -19 -22 -25 -27 -26 -25 -24 -24 -23 -24 -23 -23 -20 -20 -16 -14 -13 -11 -16 -10 -10 -9 -9 -9 -9 -8 -8 -7 -7

GFSMW_850_dewp_306.txt.gz
Dewpoint
8 9 10 10 11 11 11 8 9 9 9 11 11 10 10 10 8 9 9 8 8 9 7 7 7 7 5 5 5 5 5 4 3 0 -1 -1 -2 -4 -3 -1 0 -3 0
10 10 11 11 11 11 9 6 5 7 9 10 9 7 6 7 8 9 8 9 9 9 8 7 7 6 6 6 5 4 4 4 4 2 1 0 -1 -2 -3 -0 -0 2 1
9 10 11 11 11 11 10 9 5 5 7 8 8 8 8 8 9 9 9 9 9 8 8 7 7 6 6 5 4 2 3 2 1 1 0 2 3 -2 -1 -2 -0 0 -1
9 9 10 11 11 11 10 10 10 9 7 7 7 6 7 8 8 9 9 9 9 9 7 7 6 6 5 5 0 0 1 0 0 1 2 3 4 3 3 -1 -6 -4 -10
7 10 11 11 11 11 11 10 10 10 10 8 7 7 9 8 8 9 9 9 8 8 7 6 6 6 6 4 -1 -1 -1 -3 -4 -6 -7 -7 -5 1 3 -2 -5 -12 -16
5 7 9 10 10 10 10 11 11 10 10 9 9 9 8 9 9 9 9 8 8 7 7 7 6 6 6 -0 -3 -5 -8 -12 -16 -17 -16 -13 -9 -6 -2 -3 -15 -24 -26
4 6 7 8 9 10 10 10 11 10 10 10 9 8 9 9 9 9 9 7 7 7 7 7 6 6 3 -4 -13 -20 -21 -22 -22 -23 -23 -20 -16 -13 -10 -4 -6 -11 -30
-0 -1 -0 0 2 6 9 9 11 10 9 10 9 9 9 8 9 9 8 8 7 8 7 7 6 5 -3 -18 -22 -25 -25 -26 -27 -28 -29 -29 -27 -25 -22 -18 -14 -17 -18
1 1 1 1 1 -0 -1 5 9 9 9 10 10 10 10 9 9 8 9 8 8 8 8 7 5 -0 -18 -23 -26 -26 -27 -28 -29 -30 -31 -31 -30 -27 -25 -22 -17 -12 -4
1 2 1 1 1 1 1 1 7 9 9 9 10 10 10 10 9 10 10 9 9 9 8 3 -3 -20 -23 -27 -26 -27 -28 -29 -30 -31 -32 -32 -30 -28 -26 -24 -23 -21 -14
2 2 2 2 2 3 3 3 9 8 9 9 11 11 10 10 10 10 10 9 9 6 4 -10 -20 -28 -26 -27 -27 -28 -29 -30 -30 -31 -31 -30 -29 -27 -26 -27 -27 -26 -22
2 3 3 4 4 4 4 6 8 8 9 9 10 11 10 10 10 9 9 8 8 -2 -14 -16 -28 -27 -26 -27 -28 -29 -29 -30 -30 -30 -29 -28 -27 -26 -26 -27 -27 -26 -23
3 4 4 4 5 5 5 5 6 7 8 9 10 10 10 10 8 8 7 4 1 -16 -21 -28 -27 -26 -27 -27 -28 -28 -28 -28 -27 -27 -26 -26 -26 -27 -27 -26 -26 -24 -22
4 4 4 4 5 5 5 5 6 7 8 9 9 9 9 8 7 7 1 -12 -21 -27 -28 -27 -26 -27 -27 -27 -27 -27 -26 -26 -25 -25 -25 -25 -25 -25 -26 -26 -26 -24 -23
3 3 4 4 4 4 5 5 5 6 6 7 7 7 6 5 2 -5 -19 -25 -27 -27 -26 -26 -26 -26 -26 -26 -25 -25 -25 -25 -24 -24 -24 -26 -26 -27 -27 -27 -26 -24 -19
2 2 3 3 4 4 4 4 5 5 5 6 5 4 1 -4 -15 -25 -26 -26 -26 -26 -25 -25 -25 -25 -24 -24 -24 -24 -23 -23 -24 -26 -28 -30 -31 -32 -32 -31 -29 -25 -11
1 1 2 3 3 3 4 4 4 3 3 2 -0 -6 -12 -18 -24 -25 -25 -25 -25 -24 -24 -24 -23 -23 -23 -23 -23 -24 -25 -27 -29 -31 -33 -34 -33 -33 -32 -32 -31 -26 -22
0 0 1 2 3 3 3 3 1 -1 -4 -7 -13 -20 -22 -24 -24 -24 -24 -24 -23 -23 -23 -22 -22 -22 -23 -24 -26 -29 -31 -33 -33 -33 -32 -31 -31 -30 -30 -29 -27 -21 -21
-1 -0 0 1 1 1 -0 -2 -6 -10 -14 -18 -20 -21 -22 -23 -23 -23 -23 -22 -22 -22 -21 -22 -22 -23 -25 -28 -32 -33 -33 -32 -31 -31 -30 -29 -28 -27 -27 -24 -17 -13 -17
-2 -1 -1 -1 -1 -2 -4 -6 -10 -14 -18 -20 -21 -21 -22 -22 -22 -21 -21 -21 -20 -21 -21 -22 -23 -25 -29 -33 -32 -31 -30 -30 -29 -29 -27 -26 -26 -26 -21 -9 -8 -9 -14
-2 -3 -2 -2 -3 -4 -7 -10 -14 -16 -18 -19 -20 -21 -20 -21 -20 -20 -20 -20 -20 -21 -22 -23 -26 -30 -31 -30 -29 -28 -27 -27 -26 -26 -26 -26 -26 -25 -15 -8 -8 -8 -7
-4 -4 -4 -4 -5 -6 -9 -13 -15 -17 -18 -20 -20 -20 -19 -19 -19 -18 -19 -19 -20 -21 -23 -27 -30 -30 -29 -28 -27 -27 -27 -26 -25 -24 -24 -24 -22 -14 -10 -9 -8 -7 -6
-5 -5 -5 -6 -7 -8 -11 -14 -16 -18 -19 -19 -19 -18 -18 -18 -17 -17 -18 -20 -21 -23 -27 -29 -29 -28 -27 -27 -26 -26 -26 -25 -24 -23 -22 -22 -19 -17 -16 -11 -7 -7 -8
-6 -6 -6 -7 -8 -10 -12 -16 -18 -18 -18 -18 -17 -16 -15 -15 -15 -16 -18 -20 -24 -28 -28 -27 -27 -26 -26 -27 -26 -24 -21 -22 -22 -22 -22 -22 -20 -17 -14 -11 -10 -9 -8
-7 -7 -8 -8 -10 -11 -14 -17 -17 -17 -16 -14 -12 -13 -14 -14 -16 -16 -21 -25 -27 -27 -26 -26 -26 -26 -26 -24 -22 -18 -18 -17 -19 -22 -24 -23 -19 -15 -12 -10 -10 -9 -9
-8 -8 -9 -10 -12 -14 -16 -16 -14 -13 -11 -11 -10 -12 -14 -15 -19 -23 -26 -27 -26 -26 -25 -25 -25 -24 -22 -21 -21 -19 -14 -21 -23 -23 -22 -16 -12 -11 -9 -9 -8 -8 -8

GFSMW_850_dewp_309.txt.gz
Dewpoint
10 10 11 10 10 10 10 11 11 10 10 10 9 10 10 10 10 9 8 9 8 8 8 7 7 7 6 5 5 5 5 3 2 -1 -1 -0 -2 -3 -2 -2 0 -1 -0
10 10 11 11 11 11 11 11 11 11 10 10 9 10 10 10 10 8 8 8 8 8 9 8 7 6 6 5 4 4 3 3 1 -2 -1 -1 -1 -3 -5 -1 -4 -2 -0
9 10 11 11 11 10 11 11 11 11 10 9 10 10 11 10 9 8 8 8 9 9 9 8 7 6 5 5 4 2 2 1 -1 -2 -3 -2 -2 -8 -3 -7 -5 -8 -9
9 8 10 10 10 11 11 11 9 7 9 8 9 10 9 8 7 9 8 8 9 9 9 7 6 6 5 5 2 -1 -0 -1 -2 -4 -6 -8 -7 -6 -8 -9 -12 -14 -18
8 8 8 8 10 11 11 11 8 6 7 7 9 10 8 6 6 9 8 8 9 9 9 7 6 6 6 6 -0 -2 -3 -4 -8 -12 -16 -17 -16 -11 -6 -13 -18 -20 -22
1 6 8 9 10 11 11 11 10 8 7 7 8 9 7 7 8 9 9 10 10 9 8 7 6 6 6 6 -2 -4 -9 -14 -17 -18 -19 -20 -19 -18 -16 -17 -26 -27 -27
3 7 8 9 10 11 11 11 11 10 10 10 9 8 8 8 8 8 9 9 9 8 7 7 7 6 6 3 -5 -16 -19 -20 -21 -23 -24 -25 -26 -26 -24 -23 -28 -29 -31
1 6 8 9 10 11 11 11 11 11 10 9 9 8 8 8 8 8 8 9 8 8 7 7 6 6 5 1 -14 -21 -23 -24 -24 -26 -28 -29 -30 -30 -29 -28 -23 -22 -25
-3 3 7 9 9 10 10 10 11 11 11 9 9 9 8 7 7 8 9 10 8 8 7 7 7 6 2 -11 -20 -23 -25 -25 -26 -28 -30 -30 -30 -30 -28 -24 -21 -18 -13
-3 -1 5 7 7 8 8 9 10 11 11 9 9 9 9 9 9 9 9 9 8 8 8 8 7 1 -3 -23 -26 -25 -25 -26 -28 -29 -30 -30 -30 -29 -27 -26 -24 -20 -14
-1 -2 2 3 2 2 2 2 5 9 10 8 9 10 10 10 10 9 10 9 9 9 8 7 5 -5 -17 -27 -26 -26 -25 -28 -29 -29 -30 -30 -29 -28 -27 -26 -24 -22 -17
1 1 1 2 2 1 1 1 1 3 9 8 9 10 11 11 10 10 10 10 9 8 8 3 1 -16 -26 -27 -26 -26 -26 -28 -28 -28 -28 -28 -27 -26 -25 -25 -25 -24 -21
2 2 2 2 2 2 2 2 2 3 8 9 9 10 11 11 10 10 10 9 7 7 3 -3 -2 -22 -26 -27 -27 -27 -27 -27 -27 -27 -27 -26 -25 -25 -25 -26 -27 -29 -30
2 2 3 3 3 3 3 4 5 8 9 8 9 9 10 10 10 10 9 7 5 2 -2 -5 -22 -27 -26 -26 -26 -26 -26 -26 -27 -26 -25 -25 -25 -27 -29 -32 -32 -32 -32
3 2 3 3 4 4 5 5 6 7 7 8 9 9 9 9 8 6 7 5 1 -3 -15 -25 -26 -26 -26 -25 -25 -26 -26 -26 -25 -25 -26 -27 -30 -32 -32 -32 -33 -32 -31
3 3 3 3 4 4 5 5 5 6 6 7 8 8 7 7 5 5 2 -4 -10 -19 -24 -26 -25 -25 -25 -25 -25 -25 -25 -25 -27 -29 -31 -34 -35 -33 -32 -32 -31 -30 -27
2 3 3 3 3 4 4 4 4 5 6 7 6 6 6 5 4 -0 -10 -21 -24 -25 -25 -24 -24 -24 -24 -24 -24 -25 -26 -28 -32 -34 -35 -35 -33 -32 -31 -31 -30 -29 -27
1 2 2 3 3 4 4 4 4 5 5 5 5 4 3 0 -5 -19 -22 -24 -24 -24 -24 -23 -23 -23 -23 -24 -25 -27 -30 -33 -34 -33 -33 -32 -31 -30 -30 -30 -30 -29 -25
-1 0 2 2 3 3 3 3 3 3 3 3 2 -0 -4 -13 -19 -22 -23 -23 -23 -23 -22 -22 -22 -23 -23 -25 -27 -30 -32 -33 -33 -32 -31 -30 -29 -29 -29 -28 -27 -23 -21
-2 -1 1 1 2 3 3 3 2 2 1 0 -2 -7 -12 -15 -22 -23 -23 -22 -21 -21 -21 -21 -22 -23 -25 -28 -30 -32 -31 -31 -31 -30 -29 -28 -28 -28 -27 -21 -15 -15 -15
-1 -1 -0 0 2 3 3 2 1 -0 -2 -5 -12 -17 -19 -21 -22 -21 -21 -21 -20 -20 -21 -21 -23 -24 -27 -30 -31 -30 -29 -28 -29 -28 -28 -27 -26 -26 -24 -18 -16 -13 -8
-2 -1 -1 -0 1 2 2 -0 -2 -6 -12 -16 -18 -18 -19 -20 -20 -20 -20 -19 -20 -20 -20 -22 -24 -26 -29 -30 -29 -29 -29 -28 -27 -26 -25 -25 -25 -25 -23 -20 -16 -12 -9
-2 -2 -2 -1 -1 -1 -2 -3 -8 -12 -15 -17 -18 -19 -19 -19 -19 -19 -19 -18 -18 -19 -21 -24 -26 -29 -29 -28 -28 -28 -28 -26 -24 -23 -24 -25 -25 -24 -20 -17 -12 -10 -10
-3 -3 -3 -2 -3 -4 -5 -6 -11 -14 -16 -18 -19 -19 -18 -18 -18 -17 -16 -15 -17 -21 -23 -24 -29 -30 -28 -28 -27 -25 -24 -23 -24 -25 -25 -26 -24 -22 -18 -14 -11 -10 -9
-5 -4 -4 -4 -5 -6 -8 -11 -14 -16 -18 -18 -18 -17 -17 -16 -15 -13 -15 -15 -20 -20 -26 -29 -28 -28 -27 -26 -24 -23 -21 -20 -24 -25 -25 -25 -25 -23 -19 -15 -11 -10 -9
-5 -5 -5 -5 -7 -8 -11 -14 -16 -18 -18 -17 -17 -15 -15 -13 -13 -14 -18 -22 -23 -27 -28 -27 -27 -26 -24 -23 -23 -23 -23 -24 -24 -24 -23 -24 -24 -20 -14 -11 -10 -9 -9

GFSMW_850_dewp_315.txt.gz
Dewpoint
12 11 11 10 11 11 9 8 8 8 9 9 9 9 9 9 8 9 10 9 8 7 8 8 7 7 6 5 4 3 2 2 1 -0 -0 -1 -2 -2 -2 -3 -1 -3 -5
11 11 11 11 11 11 10 9 9 9 10 10 9 9 9 9 8 9 10 9 8 7 7 8 8 7 5 5 4 4 2 1 -2 -2 0 -0 -1 -2 -4 -1 -6 -3 -11
10 11 11 11 11 11 9 9 10 9 10 9 9 9 8 8 9 9 9 9 7 8 8 8 8 6 5 3 2 -1 -1 -1 -3 -5 -6 -4 -3 -9 -6 -5 -8 -13 -20
9 10 10 11 11 11 10 9 10 9 10 10 10 9 8 8 9 9 9 8 8 7 7 8 9 6 5 5 3 -2 -2 -2 -5 -9 -13 -13 -13 -13 -12 -12 -14 -18 -20
8 9 8 7 7 10 10 10 9 10 10 10 10 10 9 8 8 9 9 9 8 7 8 9 8 6 6 6 4 -3 -4 -6 -11 -14 -14 -15 -15 -15 -17 -16 -15 -14 -17
7 7 7 8 8 8 10 10 10 10 11 11 10 10 10 10 9 9 10 10 8 8 8 8 8 6 6 5 4 -3 -8 -14 -15 -15 -15 -15 -17 -18 -19 -19 -17 -18 -19
4 6 7 8 9 9 9 10 10 10 10 11 10 10 10 10 10 10 10 9 8 8 8 9 8 6 5 5 4 0 -12 -16 -17 -16 -16 -16 -17 -19 -21 -23 -25 -24 -22
-4 2 3 5 7 8 8 10 10 11 11 11 11 10 10 11 10 10 10 7 7 8 8 9 8 7 5 5 4 2 -9 -16 -19 -19 -19 -20 -20 -21 -23 -26 -27 -27 -26
-7 -5 -1 1 5 7 7 8 10 10 10 10 11 12 11 11 10 10 9 7 8 8 8 9 8 6 5 4 3 0 -9 -19 -21 -21 -21 -21 -23 -24 -25 -27 -28 -27 -27
-7 -7 -5 -5 -3 4 6 7 9 9 10 11 11 9 8 9 8 9 8 8 7 8 9 9 7 7 6 5 4 -2 -15 -21 -23 -23 -23 -23 -24 -26 -27 -28 -28 -27 -24
-7 -8 -6 -6 -6 -5 3 7 8 9 11 11 11 9 8 8 8 9 7 6 7 6 7 9 7 6 6 6 2 -6 -15 -22 -23 -23 -24 -24 -26 -27 -27 -27 -27 -27 -27
-4 -5 -5 -5 -4 -4 -1 5 8 9 11 11 11 10 9 9 8 8 8 7 6 7 8 8 8 7 6 3 -3 -11 -13 -24 -24 -23 -24 -26 -26 -27 -27 -28 -31 -32 -31
-3 -3 -4 -4 -3 -3 1 6 8 9 11 11 12 11 10 10 9 9 9 8 8 9 9 9 9 7 5 -0 -9 -19 -21 -24 -24 -24 -25 -26 -26 -28 -30 -33 -34 -34 -33
-2 -3 -3 -3 -3 -3 2 7 8 9 10 11 11 11 11 11 11 10 10 9 9 9 9 9 7 7 2 -8 -5 -16 -25 -25 -24 -24 -25 -26 -28 -31 -34 -35 -34 -33 -32
-2 -3 -3 -2 -2 -1 3 7 8 9 10 10 10 10 11 11 10 11 10 10 10 9 9 5 3 2 1 2 -13 -22 -25 -24 -24 -25 -26 -28 -31 -33 -34 -33 -32 -32 -30
-4 -5 -4 -2 -1 -1 2 7 7 8 8 8 8 9 10 10 10 10 10 10 9 7 7 6 -0 3 3 -14 -21 -24 -24 -24 -25 -27 -28 -30 -32 -33 -32 -31 -31 -30 -27
-3 -4 -4 -3 -2 -0 2 5 5 4 3 2 2 3 7 8 9 9 10 9 7 5 4 3 2 -9 -19 -17 -21 -23 -24 -24 -25 -27 -29 -32 -33 -32 -31 -31 -30 -29 -26
-4 -4 -4 -3 -2 0 2 3 3 3 3 3 3 5 6 6 7 7 6 7 4 3 4 1 -5 -12 -17 -22 -23 -24 -22 -25 -26 -28 -31 -32 -32 -31 -31 -30 -30 -30 -28
-5 -6 -5 -3 -3 0 2 3 3 3 3 4 5 6 6 6 6 6 6 4 4 2 1 -9 -16 -21 -23 -23 -23 -20 -25 -25 -28 -31 -32 -32 -31 -30 -29 -31 -30 -29 -29
-3 -4 -4 -4 -2 -0 2 3 3 3 4 5 6 6 6 5 5 4 5 2 1 -4 -10 -15 -20 -21 -22 -22 -21 -25 -25 -28 -31 -31 -30 -30 -29 -30 -30 -30 -29 -29 -28
-4 -3 -3 -3 -2 1 2 3 3 4 4 4 5 5 5 4 4 3 3 -1 -3 -7 -15 -20 -20 -22 -22 -22 -23 -24 -28 -30 -31 -31 -30 -29 -30 -30 -29 -28 -27 -26 -25
-3 -3 -1 -1 -1 1 3 3 4 4 4 4 4 4 4 3 2 1 -2 -6 -13 -19 -20 -21 -22 -23 -22 -22 -23 -27 -30 -31 -30 -29 -29 -29 -29 -28 -28 -28 -28 -27 -24
-1 -1 -0 -0 -0 1 2 3 3 4 4 4 4 3 2 1 -1 -6 -13 -17 -19 -20 -21 -22 -21 -21 -22 -24 -27 -29 -30 -30 -28 -28 -28 -28 -27 -27 -28 -27 -27 -25 -20
-2 -1 -1 -0 -0 0 1 2 3 3 3 3 2 1 -1 -6 -13 -17 -19 -19 -19 -20 -22 -20 -20 -22 -25 -27 -27 -28 -28 -27 -27 -27 -26 -26 -26 -26 -26 -26 -26 -23 -16
-3 -2 -2 -1 -1 -0 0 1 1 2 1 0 -1 -5 -8 -14 -16 -18 -18 -19 -21 -21 -18 -19 -21 -25 -26 -27 -27 -27 -26 -26 -26 -26 -25 -26 -26 -26 -26 -25 -25 -22 -16
-4 -3 -3 -2 -2 -1 -1 -0 -0 -0 -0 -2 -5 -10 -12 -17 -17 -18 -20 -21 -20 -19 -19 -23 -25 -26 -16 -20 -25 -25 -26 -25 -25 -25 -25 -25 -25 -24 -24 -24 -24 -23 -16

GFSMW_850_dewp_318.txt.gz
Dewpoint
11 11 11 11 11 11 10 10 10 9 9 8 9 9 9 9 8 9 9 10 9 8 7 8 7 6 5 5 4 3 2 1 0 -0 -1 -1 -2 -2 -2 -1 -3 -3 -8
11 12 11 11 11 11 10 10 10 10 10 8 8 8 8 8 8 8 8 9 9 8 7 7 7 7 5 4 4 3 2 1 -2 3 3 3 -0 -2 -2 -1 -4 -3 -17
11 12 11 11 11 11 11 10 10 10 8 8 9 9 9 8 9 8 9 9 9 7 7 8 8 7 5 3 1 -2 -1 -1 -3 -2 1 1 2 0 -6 -1 -5 -13 -19
10 11 12 12 12 11 11 10 9 9 8 9 9 9 9 9 8 8 8 9 8 7 7 7 8 7 5 5 3 -2 -2 -3 -5 -10 -12 -11 -12 -2 -2 -9 -10 -16 -18
10 10 11 9 9 10 10 10 9 8 9 9 10 9 9 9 9 8 8 9 9 8 8 7 9 7 6 6 2 -3 -4 -6 -11 -14 -13 -13 -13 -14 -13 -7 -5 -12 -16
9 10 9 9 9 9 10 10 9 8 9 9 10 10 9 9 9 7 8 8 9 8 7 7 8 7 6 5 4 -3 -8 -12 -14 -14 -14 -14 -15 -15 -15 -15 -13 -16 -15
8 9 10 10 10 10 9 10 10 9 9 9 9 10 9 9 9 8 8 8 9 9 8 7 8 7 6 5 4 3 -5 -12 -15 -15 -16 -16 -16 -16 -17 -19 -19 -19 -17
5 8 9 7 8 8 8 8 10 10 9 10 10 9 9 9 9 9 9 8 9 9 8 8 8 8 6 5 4 4 0 -8 -15 -17 -17 -17 -17 -17 -18 -20 -23 -19 -14
-3 -0 5 5 6 6 7 7 8 9 10 10 10 10 10 9 9 9 9 10 10 9 8 8 7 8 7 5 4 4 2 -5 -14 -18 -18 -18 -19 -19 -21 -23 -25 -26 -16
-7 -6 -1 3 4 5 5 7 8 8 9 10 10 10 10 10 10 10 10 10 10 8 8 8 7 8 7 5 4 3 -1 -9 -14 -19 -20 -20 -20 -21 -23 -24 -26 -28 -28
-6 -7 -8 -6 -1 5 6 6 8 8 9 9 10 10 11 11 11 11 10 9 9 7 8 8 8 8 7 6 5 3 -3 -12 -18 -21 -22 -23 -22 -23 -24 -26 -28 -31 -33
-5 -5 -6 -5 -5 -3 1 4 6 8 8 9 10 10 11 11 11 10 9 8 8 7 6 7 9 9 7 7 6 2 -6 -13 -20 -23 -23 -22 -22 -24 -26 -29 -32 -33 -33
-5 -4 -5 -6 -6 -5 -4 -4 0 4 7 8 10 10 11 11 9 8 8 9 8 7 6 7 8 8 7 6 6 2 -11 -16 -23 -24 -24 -24 -24 -24 -28 -32 -33 -34 -33
-4 -4 -4 -4 -5 -5 -5 -5 -5 -3 5 8 10 10 11 11 9 8 9 9 8 7 7 8 8 9 8 7 2 -5 -9 -8 -19 -24 -23 -25 -26 -25 -31 -33 -34 -33 -33
-3 -3 -4 -4 -4 -4 -4 -3 -2 -2 2 8 9 10 12 11 11 9 9 10 9 9 9 8 9 8 7 1 -6 -11 -1 -10 -14 -21 -24 -24 -25 -29 -32 -33 -33 -32 -31
-5 -5 -5 -5 -5 -4 -3 -3 -1 1 5 8 9 10 11 12 11 11 10 10 10 10 9 9 8 7 2 2 -2 -4 -8 -17 -23 -23 -23 -25 -28 -31 -33 -33 -32 -31 -29
-2 -3 -3 -4 -4 -4 -3 -2 -1 4 8 9 10 10 11 10 11 11 10 10 10 10 9 8 4 3 -0 -2 -1 -11 -22 -21 -23 -22 -25 -27 -30 -32 -32 -32 -31 -31 -30
-3 -2 -3 -3 -2 -3 -3 -1 0 4 8 8 9 9 9 10 10 10 10 9 9 8 7 4 5 1 1 -1 -8 -12 -15 -23 -23 -24 -27 -30 -31 -32 -32 -31 -31 -31 -32
-4 -3 -3 -3 -3 -3 -2 -1 1 4 7 7 7 7 6 7 8 8 8 8 8 5 5 2 3 1 -2 -4 -5 -15 -24 -22 -24 -27 -29 -31 -32 -31 -31 -32 -32 -32 -31
-4 -3 -3 -2 -2 -2 -2 0 1 3 5 5 4 3 3 3 4 6 6 6 5 4 2 1 1 -2 -6 -12 -20 -24 -23 -23 -26 -28 -31 -32 -30 -30 -31 -32 -31 -31 -29
-4 -3 -2 -3 -1 -1 -1 -0 1 3 3 3 3 4 4 4 5 5 5 5 3 2 1 -1 -6 -12 -17 -21 -22 -22 -23 -26 -28 -30 -31 -30 -30 -31 -31 -30 -30 -29 -27
-4 -3 -2 -1 -1 -0 -0 1 2 3 3 3 4 4 4 5 4 4 3 1 1 0 -3 -9 -13 -17 -20 -22 -21 -23 -26 -29 -30 -30 -29 -30 -30 -30 -30 -30 -28 -27 -25
-5 -4 -2 -1 -0 0 0 1 2 3 3 3 3 3 4 3 3 2 2 0 -1 -4 -8 -11 -17 -20 -23 -21 -22 -24 -29 -31 -30 -29 -29 -29 -29 -28 -28 -28 -27 -26 -24
-6 -5 -3 -2 -1 -0 0 1 2 3 3 3 3 3 3 2 1 0 0 -1 -4 -7 -12 -18 -20 -22 -21 -21 -24 -26 -28 -29 -28 -28 -28 -28 -28 -28 -27 -26 -26 -25 -24
-6 -5 -4 -3 -2 -1 -1 0 1 2 3 3 3 2 1 -0 -1 -2 -3 -5 -8 -15 -19 -20 -22 -19 -19 -23 -24 -25 -26 -27 -27 -27 -27 -27 -27 -26 -25 -25 -25 -25 -24
-7 -6 -5 -4 -3 -2 -2 -1 -0 1 1 2 1 0 -1 -2 -2 -4 -7 -13 -17 -19 -21 -21 -20 -21 -23 -23 -16 -26 -27 -26 -26 -27 -26 -26 -25 -25 -25 -25 -24 -24 -24

GFSMW_850_dewp_321.txt.gz
Dewpoint
9 9 9 9 10 11 12 10 10 11 11 11 11 10 8 8 8 8 9 9 9 9 9 9 6 6 8 6 6 3 3 1 1 0 -1 -1 -2 -2 -2 -1 -3 -3 -12
9 9 9 10 10 11 12 12 11 12 11 11 10 9 8 8 8 9 9 8 10 9 9 8 7 6 5 4 4 4 3 1 -0 5 4 4 2 -1 -0 -0 -3 -6 -16
9 9 9 9 10 10 10 11 11 11 11 11 10 8 8 8 8 8 7 8 10 8 7 7 7 7 5 3 2 -1 1 2 -2 -0 4 3 3 3 -0 -2 -3 -10 -16
10 10 10 10 10 10 11 11 11 10 10 11 9 8 8 8 8 8 8 7 9 9 7 7 7 7 5 5 3 -2 -1 -1 -3 -6 -5 -1 -1 -1 1 -3 -8 -12 -13
10 10 10 10 10 10 11 11 11 10 10 10 8 8 8 8 8 8 8 7 8 9 7 7 6 7 5 5 3 -3 -3 -4 -5 -10 -13 -13 -13 -13 -8 -5 -3 -7 -10
8 9 10 11 11 11 11 11 11 10 10 10 8 8 9 9 9 9 8 7 8 8 8 8 7 8 6 5 3 -4 -6 -9 -13 -14 -13 -12 -10 -12 -12 -11 -10 -13 -10
7 8 9 11 11 11 11 11 10 10 10 10 10 10 10 9 9 9 8 7 8 8 8 8 7 7 6 5 4 2 -7 -11 -13 -14 -14 -14 -14 -14 -14 -15 -15 -15 -13
6 7 9 10 11 11 11 11 10 11 10 10 10 9 10 10 9 9 9 8 7 8 8 8 7 7 7 5 5 4 2 -4 -11 -14 -15 -15 -15 -15 -15 -16 -16 -16 -14
5 7 8 9 10 11 11 9 10 11 10 9 10 10 10 10 9 8 8 8 8 8 8 9 8 7 7 6 5 4 3 1 -5 -11 -14 -16 -17 -17 -17 -16 -18 -20 -22
1 5 7 9 10 10 11 9 9 8 10 10 10 10 9 9 9 8 8 8 8 9 9 10 9 8 7 7 5 4 4 2 -4 -9 -14 -18 -19 -18 -18 -18 -20 -21 -25
-4 -2 1 6 9 10 10 9 10 11 10 10 10 10 10 9 9 9 9 9 9 9 9 9 8 8 7 7 6 5 4 2 -3 -9 -14 -19 -20 -20 -20 -21 -22 -22 -25
-2 -3 -4 -5 4 7 10 9 9 10 10 10 10 11 11 10 10 9 9 9 9 9 9 9 8 8 8 8 7 6 5 3 -2 -8 -12 -15 -20 -20 -21 -22 -23 -26 -30
-5 -6 -6 -5 -4 3 8 10 9 7 9 10 10 10 11 11 11 10 10 9 10 9 9 8 6 6 8 9 8 6 5 2 -5 -11 -16 -20 -21 -20 -21 -20 -26 -29 -32
-1 -2 -3 -2 -3 -1 2 6 8 6 7 9 11 11 11 11 11 11 11 11 11 8 8 6 6 6 8 9 8 6 4 -3 -11 -16 -18 -23 -22 -23 -19 -23 -29 -32 -33
0 1 1 2 2 2 1 1 4 7 3 7 10 11 11 11 11 11 11 11 9 7 8 7 7 6 7 8 8 7 2 -4 -13 -6 -19 -9 -18 -21 -23 -28 -31 -33 -32
-3 -2 -1 1 0 0 1 2 1 1 1 4 10 11 11 12 11 11 11 11 8 9 9 10 8 8 9 8 8 5 -4 -11 -4 -13 -9 -23 -20 -20 -26 -29 -33 -32 -32
-4 -4 -3 -1 0 2 0 -1 -1 0 0 2 6 9 10 10 11 11 11 11 9 10 10 10 9 9 9 8 5 -7 -9 -4 -7 -18 -21 -21 -19 -24 -29 -32 -32 -32 -33
-5 -5 -4 -3 -3 -1 1 -1 -0 0 0 1 5 8 8 9 10 10 11 11 10 10 10 9 9 8 6 6 3 -3 -3 -9 -16 -8 -10 -21 -23 -28 -32 -32 -31 -31 -32
-6 -5 -4 -4 -3 -2 -1 -0 0 1 1 2 5 7 8 9 10 10 10 10 10 10 9 9 6 6 4 2 -0 -1 -3 -8 -3 -10 -21 -26 -28 -31 -32 -32 -31 -31 -31
-6 -6 -5 -4 -2 -1 -1 -0 0 1 2 3 5 7 8 9 9 9 9 9 8 8 8 7 5 3 3 -1 -0 -1 -1 -4 -16 -20 -24 -28 -31 -31 -31 -32 -31 -31 -30
-6 -6 -5 -4 -2 -1 -1 0 0 1 2 3 4 7 7 7 7 7 7 7 6 5 5 3 4 1 0 0 -1 -6 -17 -20 -15 -23 -27 -30 -31 -31 -31 -30 -30 -30 -30
-7 -6 -6 -5 -3 -2 -1 0 1 1 2 2 4 5 5 5 4 4 4 4 5 5 3 1 1 -1 -1 -1 -6 -18 -13 -16 -25 -26 -29 -30 -30 -30 -30 -29 -29 -29 -28
-8 -7 -6 -5 -4 -2 -1 -0 0 1 1 2 3 4 4 4 4 4 4 4 3 2 1 -0 -0 -2 -6 -11 -9 -11 -24 -25 -28 -29 -29 -29 -29 -29 -29 -28 -28 -28 -27
-8 -8 -7 -6 -5 -4 -2 -1 -1 -0 0 1 2 3 3 3 3 3 2 2 1 0 -0 -1 -2 -7 -10 -16 -13 -13 -26 -28 -30 -29 -28 -28 -28 -28 -28 -27 -27 -26 -26
-9 -8 -7 -7 -6 -5 -3 -2 -1 -1 -0 1 2 3 3 3 3 1 1 0 0 0 -0 -1 -4 -13 -12 -6 -12 -23 -27 -27 -27 -28 -28 -27 -28 -27 -26 -26 -26 -26 -26
-9 -8 -8 -7 -7 -5 -4 -3 -3 -2 -1 -0 1 1 2 2 0 -0 -2 -2 -2 -2 -2 -3 -5 -9 -13 -12 -15 -24 -24 -26 -27 -24 -25 -27 -27 -26 -26 -25 -25 -25 -25